ECHO 2 DEB (METAL OBJ), 743

Orbit data source: Space-Track

ECHO 2 DEB (METAL OBJ), 743 is space debris in LEO originally from a launch on Sat, 25 Jan 1964 UTC launched from the Air Force Western Test Range (AFWTR). Debris objects in space refer to the collection of defunct objects orbiting the Earth. Examples of debris include non-operational satellites, rocket bodies, and fragments generated from explosions, collisions, or faulty payload assembly.

Loading next visibility...
Identifier
743, 1964-004D
Orbit
LEO
Country
Flag of USUS
Related business
Manufacturer
Grummann
Mission
Spacecraft
Bus & Motor
ECHO CANISTER, Unknown motor
Mass
35 kg wet, 35 kg dry
Launch date (UTC)
1964-01-25 (62 years ago)
Launch vehicle
Unknown
Launch site
Air Force Western Test Range (AFWTR)
Object type
Payload
Rocket body
Debris
Shape & HBR
Unknown shape, 0.9 m
Radar Cross Section
Medium (>0.1 m² and <1 m²)

Expand to show TLE details & history
Last TLE update: 5 hours ago

TLE from 5 hours ago
0 ECHO 2 DEB (METAL OBJ)
1   743U 64004D   26035.19854020  .00000124  00000-0  23702-3 0  9997
2   743  81.5199 274.0763 0174451 324.8024 156.5692 13.26864239   483
Epoch: 2026-02-04T04:45Z
TLE epoch observation values (Epoch: 2026-02-04T04:45:53.873Z)
Latitude
56.95863°
Longitude
-124.95083°
Altitude
1,289.111 km
Speed
7.159 km/s
True Right ascension
05h 23m 34s
True Declination
56° 48' 44"
Sunlit
Object was in daylight at epoch
Visualization orbit readout
Latitude
Unknown
Longitude
Unknown
Altitude
Unknown
Speed
Unknown
Apparent Right ascension
Unknown
Apparent Declination
Unknown
Sunlit
N/A
Visualization observer readout
Local Sidereal Time
11:29:08
Azimuth
Unknown
Elevation
Unknown
Doppler factor
Unknown
Orbital elements
Apogee altitude
1,287.319 km
Perigee altitude
1,024.455 km
Semi-major axis
7,534.024 km
Eccentricity
0.01745
Inclination
81.5199°
RAAN
274.0763°
Arg. of periapsis
324.8024°
True anomaly
157.34848°
Mean anomaly
156.5692°
Eccentric anomaly
156.96038°
Mean motion
3.31896 °/min
Orbital period
108.47 mins
BSTAR
0.00023702
Loading maneuver chart data...
Computing Atmospheric mass density...
Loading historical data...
Loading historical data...
Loading historical data...
Loading historical data...
Loading historical data...
Loading historical data...
Loading historical data...

Documentation

Showing up to 5 results
|